CDT,Max TemperatureF,Mean TemperatureF,Min TemperatureF,Max Dew PointF,MeanDew PointF,Min DewpointF,Max Humidity, Mean Humidity, Min Humidity, Max Sea Level PressureIn, Mean Sea Level PressureIn, Min Sea Level PressureIn, Max VisibilityMiles, Mean VisibilityMiles, Min VisibilityMiles, Max Wind SpeedMPH, Mean Wind SpeedMPH, Max Gust SpeedMPH,PrecipitationIn, CloudCover, Events, WindDirDegrees
2012-10-1,72,62,55,48,42,36,64,49,32,29.94,29.90,29.82,10,10,9,15,9,24,0.00,1,,330
2012-10-2,73,58,44,43,38,34,80,48,25,29.97,29.91,29.84,10,10,9,10,4,,0.00,0,,156
2012-10-3,79,62,46,43,40,34,83,46,21,29.91,29.86,29.81,10,10,9,16,4,24,0.00,0,,153
2012-10-4,64,54,43,43,34,28,71,58,39,30.18,29.98,29.75,10,10,8,28,16,38,0.00,6,,261
2012-10-5,48,40,34,29,26,25,73,56,42,30.17,30.15,30.12,10,10,10,22,16,32,0.00,5,,289
2012-10-6,46,38,33,30,26,21,73,61,40,30.30,30.23,30.14,10,10,10,15,11,25,0.00,7,,318
2012-10-7,55,40,25,24,20,14,85,51,21,30.24,30.09,29.89,10,10,10,15,6,23,0.00,0,,216
2012-10-8,66,52,39,39,31,23,63,47,27,29.87,29.73,29.59,10,10,10,16,10,23,0.00,4,,215
2012-10-9,53,44,37,40,32,25,89,59,43,30.00,29.83,29.73,10,10,10,22,9,32,0.02,6,Rain,272
2012-10-10,54,41,30,28,25,23,79,50,32,30.12,30.02,29.84,10,10,9,14,8,21,0.00,4,,255
2012-10-11,55,46,36,34,26,14,73,47,27,30.41,30.10,29.80,10,10,10,17,11,26,0.00,3,,323
2012-10-12,55,41,28,25,19,11,85,46,18,30.45,30.32,30.04,10,10,10,17,6,25,0.00,1,,147
2012-10-13,55,52,48,54,46,25,100,85,38,29.99,29.77,29.68,10,5,1,18,9,22,0.02,8,,102
2012-10-14,59,52,45,47,41,31,90,72,36,29.89,29.78,29.72,10,9,8,18,8,25,0.00,5,,347
2012-10-15,63,50,37,40,35,33,86,57,37,29.96,29.88,29.73,10,10,10,10,6,,0.00,1,,192
2012-10-16,66,59,52,48,45,39,83,62,49,29.71,29.51,29.36,10,10,10,15,8,,0.00,1,,145
2012-10-17,62,55,46,49,45,39,89,71,49,29.33,29.24,29.14,10,9,5,22,9,34,0.01,6,,223
2012-10-18,50,46,42,43,41,39,93,84,71,29.39,29.25,29.17,10,9,3,8,5,,0.00,7,,262
2012-10-19,54,48,41,48,45,38,94,86,66,29.74,29.57,29.41,10,7,2,14,4,21,0.09,7,Rain,346
2012-10-20,54,46,39,45,41,37,100,88,66,29.83,29.79,29.73,10,6,0,10,3,,0.00,5,Fog,189
2012-10-21,72,58,43,50,45,40,89,68,41,29.89,29.82,29.75,10,10,8,15,8,24,0.00,1,,124
2012-10-22,63,56,50,50,46,43,77,66,54,29.94,29.89,29.86,10,10,10,15,8,22,0.00,6,,43
2012-10-23,66,60,55,59,55,52,94,86,73,29.82,29.75,29.68,10,5,1,15,8,20,0.09,8,Rain-Thunderstorm,112
2012-10-24,60,56,48,55,52,44,94,89,78,29.84,29.78,29.74,10,5,2,14,5,25,0.23,7,Rain,347
2012-10-25,46,40,35,43,35,24,93,82,55,30.17,29.83,29.69,10,6,2,21,15,31,0.63,8,Rain-Snow,327
2012-10-26,39,36,32,26,24,21,75,62,49,30.38,30.32,30.19,10,10,10,16,10,26,0.00,5,,270
2012-10-27,44,36,28,27,24,19,88,66,38,30.40,30.36,30.32,10,10,9,13,4,20,0.00,2,,232
2012-10-28,46,38,30,27,24,23,88,62,41,30.37,30.33,30.29,10,10,6,12,4,,0.00,4,,150
2012-10-29,46,39,32,28,24,20,67,56,49,30.34,30.30,30.25,10,10,10,12,7,,0.00,5,,116
2012-10-30,51,40,30,29,23,12,76,54,35,30.25,30.16,30.08,10,10,10,10,6,17,0.00,1,,30
2012-10-31,51,40,28,27,21,16,67,49,27,30.09,30.02,29.94,10,10,7,8,5,,0.00,2,,323